Wind_Speed
12 11 11 11 11 13 13 13 13 13 12 11 11 11 10 10 9 8 8 7 6 5 4 4 4 5 5 5 5 5 4 4 4 5 4 4 4 5 4 3 3 2 1 1 1 1 1 1 2
13 12 12 12 13 13 14 14 14 14 13 12 11 11 11 10 9 9 8 7 6 6 5 4 4 4 4 5 4 4 5 5 5 5 5 5 5 4 4 3 2 1 1 1 1 1 2 2 2
13 13 14 14 14 14 14 14 14 14 13 13 12 12 11 10 10 9 8 7 6 6 5 5 4 3 4 5 5 5 5 5 5 5 5 5 5 5 4 2 2 2 2 1 1 1 2 1 1
13 13 14 14 15 15 15 15 14 14 13 13 13 12 11 10 10 10 9 8 7 6 5 5 5 4 4 5 5 5 5 5 5 4 4 4 3 4 3 2 1 1 1 0 0 1 1 1 1
13 14 14 14 15 15 16 16 15 14 14 13 13 12 11 10 10 10 9 8 8 7 7 5 4 4 4 4 5 5 5 5 4 4 4 3 2 2 2 2 1 1 1 1 1 1 1 1 1
13 14 14 14 15 15 15 16 15 15 14 13 13 12 11 10 10 11 10 9 9 8 8 7 5 4 5 5 5 5 5 5 4 4 4 3 2 2 2 2 1 1 1 1 1 1 1 1 1
13 13 14 15 14 15 15 15 15 15 14 13 13 12 12 11 11 11 10 9 10 9 8 8 7 6 6 6 6 5 5 5 4 4 3 3 2 2 2 2 1 1 2 1 1 2 2 1 1
12 13 14 14 14 15 15 15 15 15 14 13 12 13 12 12 12 11 11 10 10 10 9 9 9 8 7 7 7 6 6 5 5 4 3 3 2 2 2 2 1 2 2 1 1 2 2 2 2
11 12 13 14 15 14 14 15 14 14 14 13 12 12 12 12 12 12 11 11 10 10 10 10 10 9 9 8 8 6 6 5 4 3 3 2 1 2 2 2 2 2 1 1 1 1 1 1 2
11 12 13 14 15 14 14 14 14 14 14 14 13 13 13 12 12 11 11 11 11 10 10 10 10 9 8 8 8 6 6 5 4 3 3 2 2 2 2 1 2 1 1 1 1 1 1 1 1
11 12 13 13 14 14 14 13 13 14 14 13 13 12 12 12 11 11 11 10 10 11 10 10 9 9 8 7 7 6 6 5 4 4 3 3 2 2 2 2 2 2 1 1 1 1 1 1 1
10 11 11 12 12 12 12 12 13 13 14 13 12 12 11 11 11 11 11 11 11 11 11 11 10 10 9 8 7 6 6 5 4 4 3 3 3 2 2 1 2 1 1 1 1 1 1 1 1
9 9 10 11 11 12 12 11 12 12 13 13 11 11 11 10 11 11 11 11 11 10 10 10 10 9 8 8 7 7 6 6 5 5 4 3 3 2 1 1 2 1 1 1 1 1 2 2 2
8 8 8 9 10 10 11 11 11 11 12 12 11 11 10 10 10 10 10 10 10 10 9 10 10 9 9 8 8 8 7 6 6 5 4 3 3 2 1 1 1 2 2 2 2 2 3 3 3
7 7 7 8 9 9 10 11 10 11 11 11 11 10 10 10 10 10 10 9 9 9 9 9 9 8 8 8 8 8 7 6 6 5 4 4 3 2 1 1 1 2 2 2 3 3 4 4 4
6 6 6 6 7 8 8 10 10 9 10 10 9 9 9 8 9 9 8 8 8 8 8 8 8 8 8 7 7 8 7 6 5 5 5 4 3 3 2 2 1 2 2 3 4 4 4 4 4
3 4 4 5 5 6 6 8 8 7 8 7 7 7 7 7 7 7 7 7 7 7 7 7 8 8 7 6 6 7 6 6 5 5 4 4 4 4 3 2 1 1 2 3 4 4 4 4 4
2 1 1 3 3 4 4 5 6 7 6 6 6 6 6 6 6 6 6 6 6 6 6 6 6 6 6 5 6 5 6 5 5 4 4 4 4 3 3 3 2 2 3 3 3 4 4 4 4
3 3 1 1 1 1 2 3 4 5 5 5 5 5 5 6 5 4 4 4 5 5 5 6 6 6 6 5 5 5 5 5 5 5 4 4 4 4 3 3 3 4 5 4 4 5 5 6 6
5 5 4 4 3 3 1 2 2 3 4 4 4 4 4 4 4 3 3 3 3 4 4 5 5 6 6 5 5 5 5 5 5 5 4 5 4 4 4 4 4 5 6 6 5 6 6 6 7
9 7 7 7 6 5 4 3 3 3 3 5 4 4 4 3 3 2 2 2 2 3 4 4 4 5 5 5 4 4 5 5 6 6 6 5 4 4 4 5 5 6 6 7 7 6 7 8 8
10 9 8 7 7 6 5 5 4 5 5 6 5 4 3 3 3 2 2 1 1 1 2 3 4 4 5 5 4 4 5 5 6 6 6 5 5 5 6 6 6 7 7 7 7 7 8 8 8
12 12 10 9 8 8 7 7 6 6 7 6 6 5 4 4 4 3 3 2 2 2 2 2 3 4 4 4 4 4 5 6 6 7 7 6 6 6 6 7 7 8 8 8 8 8 9 9 9
14 13 12 12 11 10 9 10 8 7 7 7 7 6 5 4 4 4 4 3 2 3 4 3 4 4 4 5 5 5 5 6 7 7 7 7 7 6 6 7 7 8 9 9 8 9 9 11 11
15 14 13 13 13 13 12 11 9 7 7 8 8 7 7 5 5 5 4 4 4 4 4 5 5 5 5 6 7 6 7 7 8 8 8 8 7 7 7 8 8 9 10 10 11 10 11 12 12
16 15 15 15 15 15 14 13 10 8 8 9 8 7 7 6 5 5 5 5 5 6 6 7 6 6 6 7 8 8 7 7 8 8 9 8 8 8 8 9 10 10 11 11 12 12 12 14 13
17 16 15 16 16 16 15 14 12 10 9 10 9 8 7 6 6 6 6 7 7 8 8 7 7 7 7 8 9 7 7 8 8 8 9 9 9 9 10 10 11 11 12 12 13 13 13 14 14
19 17 16 16 17 16 16 15 12 10 10 10 10 9 8 8 8 7 7 7 8 9 9 8 8 9 8 8 9 9 9 9 9 9 10 10 10 10 11 12 12 13 13 14 14 15 13 14 14
20 18 17 17 17 17 17 15 13 11 10 10 10 10 10 9 8 8 8 9 10 11 11 11 10 10 10 10 10 9 9 10 10 10 11 12 12 12 12 13 13 13 14 15 15 15 14 14 15
20 19 18 18 18 18 18 16 14 13 12 12 11 11 11 10 10 10 10 11 12 13 14 13 13 13 13 12 12 11 11 11 11 12 12 12 13 14 13 14 14 14 15 15 15 15 16 16 17
Wind_Direction
77 76 78 77 70 68 70 70 66 63 58 58 58 58 58 55 53 52 56 62 62 61 72 81 97 118 111 104 106 110 115 118 116 117 130 138 142 145 146 147 138 141 121 169 189 222 232 234 230
77 76 76 72 71 69 71 71 65 63 60 58 57 59 59 59 58 56 56 60 62 66 79 87 96 104 110 112 114 116 116 120 122 116 123 136 138 143 155 166 177 198 204 170 158 194 223 251 248
75 72 71 69 71 72 71 69 67 64 60 60 61 61 61 58 58 58 58 61 63 66 77 85 91 100 101 118 120 118 117 115 123 119 116 123 127 128 136 163 191 187 179 162 132 175 199 213 220
79 74 72 73 73 72 71 70 68 65 62 61 61 59 59 54 53 57 60 61 63 68 75 88 93 98 104 122 126 121 116 117 124 122 120 122 128 139 135 146 180 189 197 176 159 201 201 182 203
81 74 73 76 75 72 69 68 67 64 62 62 61 57 54 51 51 54 59 64 65 69 76 86 86 93 113 118 120 120 116 109 114 122 126 125 128 136 149 124 105 129 167 169 117 167 193 201 222
81 75 76 77 75 71 66 63 62 61 59 61 62 57 53 53 52 53 56 63 67 73 73 76 78 89 106 113 112 111 113 109 114 126 137 137 138 130 126 125 135 152 166 181 212 208 147 155 223
83 78 75 74 74 69 64 60 58 59 58 58 59 57 54 57 56 56 59 61 68 66 65 68 72 91 103 104 106 109 105 102 104 118 135 143 143 139 138 149 177 189 192 167 154 208 192 210 239
81 80 76 74 71 66 63 58 56 57 57 57 57 57 57 58 58 59 61 64 69 68 69 68 77 94 105 108 108 110 105 102 95 98 102 125 140 152 160 172 170 151 145 137 174 200 204 226 234
83 80 79 75 71 65 60 55 52 54 53 52 54 58 59 59 59 59 62 65 69 68 67 65 72 85 96 103 104 107 106 106 103 92 91 97 122 155 187 176 161 164 146 160 194 197 216 240 229
83 79 75 75 71 65 58 51 49 51 53 51 53 58 60 63 61 59 60 64 66 66 65 65 70 78 88 94 99 103 108 105 103 103 101 108 123 136 141 148 150 171 176 189 214 199 218 224 249
89 81 77 75 69 64 57 48 48 50 51 51 52 57 61 62 59 57 60 65 65 64 64 66 70 75 80 87 91 93 99 104 104 103 98 99 112 132 113 122 143 139 169 211 228 233 261 287 295
98 87 81 76 69 61 54 50 48 49 49 51 51 54 55 57 56 55 60 65 64 64 65 66 69 75 80 84 85 88 93 94 95 97 95 87 96 113 110 127 155 171 184 214 252 267 300 297 304
102 91 84 78 69 61 57 54 50 47 50 52 54 55 55 55 55 54 58 61 62 65 67 65 67 72 76 78 77 79 83 83 83 83 86 78 72 82 111 175 193 194 204 221 252 269 294 297 308
105 95 83 77 70 62 57 53 52 49 49 51 56 57 55 52 51 49 51 54 61 64 65 66 67 68 69 72 73 73 72 73 75 77 73 62 62 76 74 202 214 228 234 237 248 266 279 297 310
106 96 86 83 76 65 57 50 46 46 49 49 51 54 53 47 48 49 50 54 58 62 63 65 66 66 67 67 67 63 63 65 64 62 49 45 55 55 32 313 270 254 246 247 263 271 281 291 297
113 93 79 77 77 70 58 48 42 42 44 46 48 47 48 45 45 45 49 52 55 61 64 63 63 64 65 65 63 58 56 55 56 52 42 43 40 34 22 3 326 303 287 278 280 283 286 293 289
118 95 74 66 63 63 53 48 41 35 34 38 40 41 40 43 44 46 51 53 58 61 65 64 61 61 60 60 58 55 51 47 42 42 40 33 32 29 25 8 343 329 315 303 295 289 287 291 287
179 105 68 56 53 50 48 44 41 30 23 26 30 33 34 38 41 48 53 56 57 59 63 64 59 56 55 52 47 44 46 42 37 36 30 23 14 9 3 350 337 318 313 312 306 298 292 288 289
223 235 252 330 358 15 42 29 18 15 17 22 23 26 25 22 23 33 44 51 51 52 57 58 54 52 47 40 34 36 38 36 33 31 21 7 356 349 342 334 321 308 306 305 297 289 290 289 288
230 243 254 262 272 279 297 325 338 2 5 7 7 11 14 14 10 17 34 42 44 47 51 50 46 42 38 31 28 32 29 25 19 19 17 7 357 344 333 324 316 310 307 303 295 295 292 291 292
239 243 249 257 266 272 280 282 299 316 333 341 341 341 356 3 357 352 6 26 37 42 42 36 29 27 20 15 15 18 15 10 8 7 3 357 352 345 332 322 318 313 309 304 299 297 297 294 291
246 246 244 250 259 263 273 279 281 286 296 311 319 320 333 340 335 324 323 337 2 21 25 12 5 5 1 358 358 359 358 357 358 352 347 342 341 337 330 323 319 316 316 310 302 301 303 300 300
246 248 251 255 260 264 274 277 279 286 289 300 308 310 310 317 327 325 317 332 338 325 341 357 358 355 351 348 343 338 339 340 341 340 338 336 334 334 325 320 316 316 314 315 311 304 302 301 301
248 250 255 258 261 266 274 276 280 286 283 288 294 293 294 302 314 320 317 316 336 338 341 343 343 344 341 337 332 327 325 326 328 329 328 327 325 324 319 317 317 314 319 317 312 309 308 305 304
249 251 257 260 263 267 270 271 278 284 278 278 281 281 286 292 298 310 315 316 322 325 328 333 327 325 327 327 325 320 317 317 318 319 321 319 319 320 319 320 318 316 318 318 315 309 304 303 304
248 251 257 263 268 268 268 269 271 277 275 277 279 275 281 288 290 300 303 301 305 308 313 323 327 316 317 319 318 314 309 309 311 313 316 317 315 314 314 314 312 313 314 313 313 304 300 301 303
247 248 254 261 266 268 264 269 275 273 273 274 276 278 281 292 293 296 301 301 299 300 307 310 316 321 319 319 317 310 306 307 309 310 313 314 311 309 309 309 309 310 312 313 313 310 305 305 304
246 249 251 257 266 268 264 267 272 272 272 267 274 282 283 288 290 293 299 303 299 295 300 304 303 304 308 310 313 311 310 308 308 306 307 308 307 306 307 307 307 309 311 313 313 315 311 310 304
247 249 253 258 265 269 270 269 270 271 270 266 271 279 283 286 285 287 291 296 297 295 296 298 296 295 296 297 298 299 299 300 303 304 305 306 306 304 304 306 306 307 309 310 313 314 311 310 310
244 248 252 256 262 266 271 271 268 266 265 262 267 275 281 285 288 286 285 290 294 295 297 297 297 294 291 293 292 291 291 294 296 297 300 302 304 305 306 306 304 304 306 308 310 311 310 308 309
Height
5888 5887 5887 5888 5887 5886 5884 5884 5883 5882 5882 5881 5880 5880 5879 5880 5880 5881 5879 5876 5877 5877 5876 5876 5876 5876 5877 5877 5878 5879 5879 5879 5880 5881 5882 5882 5883 5884 5885 5886 5887 5888 5888 5888 5888 5889 5890 5890 5891
5890 5890 5890 5889 5888 5887 5887 5885 5885 5884 5884 5883 5882 5881 5881 5880 5880 5879 5878 5878 5878 5877 5877 5877 5877 5877 5877 5878 5879 5879 5880 5880 5881 5882 5883 5883 5884 5885 5886 5886 5887 5888 5888 5888 5889 5890 5890 5890 5891
5892 5892 5893 5891 5890 5889 5888 5887 5886 5886 5885 5884 5884 5883 5882 5881 5880 5880 5879 5879 5879 5878 5878 5877 5877 5878 5878 5878 5879 5880 5880 5881 5882 5883 5884 5885 5885 5885 5886 5887 5887 5887 5888 5889 5889 5890 5890 5890 5891
5895 5895 5895 5894 5892 5891 5890 5889 5888 5888 5887 5886 5885 5885 5884 5883 5882 5881 5880 5880 5879 5879 5878 5878 5878 5878 5878 5879 5879 5880 5881 5882 5882 5883 5884 5885 5886 5886 5887 5888 5887 5887 5888 5889 5890 5890 5891 5891 5891
5897 5897 5896 5895 5894 5893 5892 5891 5890 5889 5889 5888 5887 5886 5885 5885 5883 5882 5882 5881 5880 5880 5879 5878 5878 5878 5879 5879 5880 5880 5881 5882 5883 5884 5885 5885 5886 5887 5887 5888 5888 5888 5889 5890 5890 5891 5891 5891 5892
5899 5899 5898 5897 5896 5895 5894 5893 5892 5891 5890 5890 5889 5888 5887 5886 5885 5884 5883 5882 5881 5880 5879 5879 5878 5878 5878 5879 5880 5881 5882 5883 5884 5885 5885 5886 5886 5887 5887 5888 5888 5889 5889 5890 5891 5891 5891 5892 5892
5902 5901 5899 5899 5898 5897 5897 5895 5894 5893 5892 5892 5891 5890 5889 5888 5887 5886 5885 5883 5882 5881 5880 5879 5877 5877 5878 5880 5881 5882 5883 5884 5884 5885 5885 5886 5887 5887 5888 5888 5889 5889 5890 5890 5891 5891 5892 5892 5892
5903 5903 5901 5900 5900 5899 5899 5897 5896 5895 5894 5894 5893 5892 5891 5890 5889 5888 5886 5885 5884 5883 5882 5880 5878 5877 5879 5881 5882 5883 5884 5884 5885 5886 5886 5887 5887 5888 5888 5889 5889 5889 5890 5891 5891 5891 5891 5892 5892
5905 5905 5903 5902 5902 5901 5900 5900 5899 5898 5897 5895 5894 5894 5893 5892 5891 5890 5888 5887 5886 5885 5884 5883 5881 5881 5881 5882 5883 5884 5885 5885 5886 5887 5887 5887 5888 5888 5889 5889 5889 5890 5890 5891 5891 5891 5891 5891 5891
5907 5906 5906 5905 5904 5903 5902 5902 5901 5900 5898 5897 5896 5895 5894 5893 5893 5892 5890 5889 5888 5887 5886 5885 5884 5884 5884 5884 5884 5885 5886 5886 5887 5887 5888 5888 5888 5888 5889 5889 5889 5890 5890 5890 5891 5891 5891 5891 5891
5908 5908 5907 5906 5905 5905 5904 5903 5902 5901 5900 5899 5898 5897 5896 5895 5894 5893 5892 5891 5890 5889 5888 5887 5886 5886 5886 5886 5886 5886 5887 5887 5887 5888 5888 5888 5888 5888 5889 5889 5889 5890 5890 5890 5890 5891 5890 5890 5890
5909 5909 5909 5908 5907 5906 5906 5905 5904 5903 5902 5901 5900 5899 5898 5897 5896 5895 5894 5893 5892 5891 5890 5890 5889 5888 5888 5888 5888 5888 5888 5888 5888 5888 5889 5889 5889 5889 5889 5889 5890 5890 5890 5890 5890 5890 5890 5889 5889
5910 5911 5910 5910 5909 5908 5907 5907 5906 5904 5903 5902 5901 5900 5900 5899 5898 5897 5896 5895 5894 5894 5893 5892 5891 5890 5890 5890 5890 5890 5890 5890 5889 5889 5889 5890 5889 5889 5889 5889 5890 5890 5890 5890 5890 5890 5890 5889 5889
5911 5911 5911 5911 5910 5909 5909 5908 5907 5906 5905 5904 5903 5902 5902 5901 5900 5899 5898 5897 5896 5896 5895 5894 5893 5893 5892 5892 5892 5892 5891 5891 5891 5890 5890 5890 5889 5889 5889 5889 5889 5890 5890 5890 5890 5890 5889 5889 5889
5912 5913 5913 5912 5911 5911 5910 5910 5909 5908 5907 5906 5905 5904 5903 5902 5902 5901 5899 5899 5898 5897 5896 5896 5895 5895 5894 5894 5893 5893 5892 5892 5891 5891 5890 5890 5890 5889 5889 5889 5889 5889 5889 5889 5889 5889 5889 5889 5888
5913 5913 5913 5913 5912 5911 5912 5911 5910 5909 5908 5908 5907 5906 5905 5904 5903 5902 5901 5900 5900 5899 5898 5897 5897 5896 5896 5895 5895 5894 5893 5893 5892 5892 5891 5891 5890 5890 5889 5889 5889 5889 5889 5889 5889 5889 5888 5888 5888
5913 5914 5913 5913 5912 5912 5912 5911 5911 5910 5910 5909 5908 5907 5906 5905 5904 5904 5903 5902 5901 5900 5899 5899 5898 5898 5897 5897 5896 5895 5894 5894 5893 5892 5892 5891 5891 5890 5889 5889 5889 5889 5889 5888 5888 5888 5888 5887 5887
5914 5913 5913 5913 5913 5912 5912 5912 5912 5911 5911 5910 5909 5908 5907 5906 5905 5905 5904 5903 5902 5901 5901 5900 5899 5899 5898 5898 5897 5896 5896 5895 5894 5893 5893 5892 5891 5890 5890 5889 5889 5889 5889 5888 5888 5887 5887 5887 5886
5913 5913 5913 5913 5913 5912 5912 5912 5912 5911 5911 5911 5910 5909 5908 5907 5906 5905 5905 5904 5903 5903 5902 5901 5900 5900 5899 5898 5898 5897 5896 5896 5895 5894 5893 5892 5891 5890 5890 5889 5889 5888 5888 5888 5887 5887 5886 5886 5885
5912 5913 5913 5913 5912 5912 5912 5912 5912 5911 5911 5911 5910 5909 5908 5907 5906 5905 5905 5904 5904 5903 5903 5902 5901 5900 5900 5899 5898 5898 5897 5896 5896 5895 5894 5892 5891 5890 5890 5889 5888 5888 5887 5886 5886 5885 5885 5884 5884
5911 5911 5912 5912 5912 5911 5911 5912 5912 5911 5911 5910 5910 5909 5908 5908 5907 5905 5905 5904 5904 5904 5903 5902 5902 5901 5900 5899 5899 5898 5897 5897 5896 5895 5894 5892 5891 5890 5889 5888 5888 5887 5886 5885 5885 5884 5883 5883 5882
5909 5910 5910 5910 5910 5910 5911 5911 5911 5910 5910 5910 5909 5909 5908 5908 5907 5905 5904 5904 5904 5903 5903 5902 5902 5901 5900 5900 5899 5898 5897 5896 5895 5894 5893 5892 5891 5890 5889 5888 5887 5886 5885 5884 5883 5882 5882 5881 5880
5908 5908 5908 5909 5909 5910 5910 5910 5911 5910 5910 5910 5909 5908 5908 5907 5906 5905 5904 5903 5903 5903 5903 5902 5901 5901 5900 5899 5898 5898 5897 5895 5894 5893 5892 5891 5890 5889 5888 5887 5886 5885 5883 5882 5881 5880 5880 5879 5878
5905 5906 5906 5907 5907 5908 5909 5908 5909 5909 5909 5909 5908 5907 5907 5906 5905 5904 5903 5903 5903 5903 5902 5901 5901 5900 5899 5898 5897 5896 5896 5894 5893 5892 5891 5890 5889 5888 5887 5885 5884 5883 5881 5880 5879 5878 5877 5876 5875
5903 5904 5905 5905 5905 5906 5907 5906 5908 5907 5907 5907 5907 5906 5906 5905 5905 5904 5903 5903 5902 5902 5901 5901 5900 5899 5898 5897 5896 5895 5894 5893 5892 5891 5890 5889 5887 5886 5885 5884 5883 5882 5880 5878 5877 5876 5875 5873 5872
5901 5902 5903 5903 5903 5904 5904 5904 5906 5906 5905 5905 5905 5905 5905 5904 5903 5903 5902 5902 5901 5901 5900 5899 5898 5898 5897 5896 5895 5894 5892 5891 5890 5889 5888 5887 5886 5884 5883 5882 5881 5879 5878 5876 5875 5873 5872 5870 5868
5897 5898 5900 5900 5900 5900 5901 5902 5904 5904 5904 5903 5903 5903 5903 5902 5902 5901 5901 5900 5900 5899 5899 5898 5897 5896 5895 5894 5893 5892 5891 5890 5889 5888 5886 5885 5884 5882 5881 5880 5878 5876 5875 5873 5872 5870 5868 5866 5865
5894 5895 5896 5897 5897 5897 5898 5899 5901 5901 5901 5901 5901 5901 5901 5900 5900 5900 5899 5898 5898 5897 5896 5895 5894 5893 5892 5891 5891 5890 5888 5887 5886 5886 5884 5883 5881 5879 5878 5877 5875 5873 5872 5870 5868 5867 5865 5863 5861
5890 5892 5892 5893 5894 5894 5894 5898 5898 5898 5899 5899 5899 5899 5899 5898 5898 5898 5897 5897 5896 5895 5894 5892 5891 5890 5889 5888 5887 5886 5886 5885 5884 5883 5881 5880 5879 5877 5875 5874 5872 5870 5869 5867 5865 5863 5862 5860 5858
5886 5887 5889 5890 5890 5890 5891 5896 5895 5896 5896 5896 5896 5897 5897 5896 5896 5896 5895 5894 5893 5892 5890 5889 5888 5887 5886 5885 5884 5883 5882 5882 5881 5879 5878 5877 5876 5874 5872 5870 5869 5867 5865 5864 5862 5860 5858 5856 5854